WX9WTF Weather Reports


time (UTC)temp
F
wind
direction
speed
knots
gust
knots
rain 1hr
in
rain 24hr
in
rain mn
in
humidity
%
barometer
mb
20260906175120 99 355 1.7 1.7 0.00 0.00 0.00 45 1015.3
20260906174618 99 210 1.7 2.6 0.00 0.00 0.00 47 1015.4
20260906174113 99 186 0.0 4.3 0.00 0.00 0.00 50 1015.5
20260906173608 99 205 0.9 3.5 0.00 0.00 0.00 46 1015.6
20260906173104 99 262 0.9 1.7 0.00 0.00 0.00 47 1015.7
20260906172558 98 174 0.0 2.6 0.00 0.00 0.00 47 1015.7
20260906172054 98 124 0.0 2.6 0.00 0.00 0.00 49 1015.9
20260906171553 98 75 0.0 3.5 0.00 0.00 0.00 47 1015.9
20260906171049 99 325 0.0 1.7 0.00 0.00 0.00 48 1015.9
20260906170545 100 336 0.0 1.7 0.00 0.00 0.00 49 1016.1
20260906170043 99 52 0.0 1.7 0.00 0.00 0.00 49 1016.2
20260906165540 99 59 1.7 1.7 0.00 0.00 0.00 49 1016.1
20260906165036 98 86 1.7 1.7 0.00 0.00 0.00 53 1016.2
20260906164535 98 13 0.0 2.6 0.00 0.00 0.00 51 1016.3
20260906164031 97 60 0.0 0.9 0.00 0.00 0.00 54 1016.1
20260906163526 96 299 0.0 3.5 0.00 0.00 0.00 51 1016.3
20260906163022 97 150 1.7 5.2 0.00 0.00 0.00 50 1016.2
20260906162519 97 162 0.9 3.5 0.00 0.00 0.00 52 1016.5
20260906162014 97 83 1.7 1.7 0.00 0.00 0.00 53 1016.4
20260906161509 96 136 0.0 2.6 0.00 0.00 0.00 53 1016.3
20260906161007 96 134 0.9 2.6 0.00 0.00 0.00 55 1016.3
20260906160501 95 173 2.6 2.6 0.00 0.00 0.00 56 1016.3
20260906155958 95 89 0.0 4.3 0.00 0.00 0.00 60 1016.3
20260906155457 94 89 0.0 1.7 0.00 0.00 0.00 61 1016.1
20260906154948 94 40 0.0 2.6 0.00 0.00 0.00 59 1016.0
20260906154443 93 171 3.5 3.5 0.00 0.00 0.00 58 1016.1
20260906153941 93 126 2.6 3.5 0.00 0.00 0.00 59 1016.2
20260906153440 94 121 1.7 1.7 0.00 0.00 0.00 59 1016.2
20260906152936 94 121 0.0 1.7 0.00 0.00 0.00 59 1016.2
20260906152436 93 118 1.7 2.6 0.00 0.00 0.00 62 1016.2
20260906151935 92 132 0.9 3.5 0.00 0.00 0.00 62 1016.1
20260906151431 92 134 1.7 3.5 0.00 0.00 0.00 62 1016.3
20260906150926 91 89 1.7 2.6 0.00 0.00 0.00 65 1016.1
20260906150421 91 141 1.7 2.6 0.00 0.00 0.00 65 1016.2
20260906145921 91 156 0.9 3.5 0.00 0.00 0.00 65 1016.3
20260906145420 90 85 3.5 4.3 0.00 0.00 0.00 64 1016.3
20260906144914 90 84 2.6 4.3 0.00 0.00 0.00 65 1016.3
20260906144409 90 79 1.7 2.6 0.00 0.00 0.00 65 1016.3
20260906143904 90 97 2.6 2.6 0.00 0.00 0.00 66 1016.3
20260906143400 90 85 1.7 1.7 0.00 0.00 0.00 66 1016.6
20260906142856 89 70 1.7 2.6 0.00 0.00 0.00 68 1016.1
20260906142350 88 108 0.9 1.7 0.00 0.00 0.00 70 1016.1
20260906141850 88 121 1.7 4.3 0.00 0.00 0.00 68 1016.0
20260906141344 88 75 1.7 1.7 0.00 0.00 0.00 70 1016.1
20260906140844 87 75 0.0 2.6 0.00 0.00 0.00 71 1016.1
20260906140339 87 97 0.9 2.6 0.00 0.00 0.00 70 1016.2
20260906135836 86 49 0.9 1.7 0.00 0.00 0.00 71 1016.1
20260906135331 85 112 0.9 0.9 0.00 0.00 0.00 74 1016.0
20260906134827 84 87 0.0 2.6 0.00 0.00 0.00 74 1016.2
20260906134322 85 84 1.7 1.7 0.00 0.00 0.00 73 1016.2
20260906133817 85 93 0.0 1.7 0.00 0.00 0.00 73 1016.0
20260906133313 85 112 0.9 1.7 0.00 0.00 0.00 73 1015.9
20260906132808 85 74 0.0 0.9 0.00 0.00 0.00 73 1016.0
20260906132306 85 37 0.0 0.0 0.00 0.00 0.00 76 1015.9
20260906131759 83 89 0.0 0.9 0.00 0.00 0.00 77 1016.0
20260906131253 82 62 0.0 0.9 0.00 0.00 0.00 81 1015.7
20260906130748 79 126 0.0 0.0 0.00 0.00 0.00 85 1015.7
20260906130244 77 100 0.0 0.9 0.00 0.00 0.00 87 1015.5
20260906125742 76 129 0.0 0.9 0.00 0.00 0.00 89 1015.5
20260906125240 75 63 0.0 0.9 0.00 0.00 0.00 90 1015.4
20260906124735 75 47 0.0 1.7 0.00 0.00 0.00 91 1015.4
20260906124231 74 68 0.0 0.9 0.00 0.00 0.00 92 1015.4
20260906123730 74 89 0.0 0.0 0.00 0.00 0.00 92 1015.5
20260906123225 73 117 0.0 0.0 0.00 0.00 0.00 92 1015.3
20260906122725 73 89 0.0 0.9 0.00 0.00 0.00 92 1015.3
20260906122215 73 110 0.9 0.9 0.00 0.00 0.00 92 1015.2
20260906121711 72 142 0.0 0.0 0.00 0.00 0.00 92 1015.3
20260906121207 72 50 0.0 0.0 0.00 0.00 0.00 92 1015.1
20260906120702 73 50 0.0 0.0 0.00 0.00 0.00 92 1015.3
20260906120153 73 164 0.0 0.0 0.00 0.00 0.00 92 1015.3
20260906115648 73 66 0.0 0.0 0.00 0.00 0.00 92 1015.2
20260906115144 73 15 0.0 0.0 0.00 0.00 0.00 92 1015.2
20260906114643 73 67 0.0 0.0 0.00 0.00 0.00 92 1015.1
20260906114137 73 37 0.0 0.0 0.00 0.00 0.00 92 1015.2
20260906113632 73 11 0.0 0.9 0.00 0.00 0.00 93 1015.1
20260906113127 73 124 0.0 0.0 0.00 0.00 0.00 93 1015.2
20260906112626 73 44 0.0 0.0 0.00 0.00 0.00 93 1015.2
20260906112123 72 50 0.0 0.0 0.00 0.00 0.00 92 1015.1
20260906111622 72 62 0.0 0.0 0.00 0.00 0.00 92 1015.1
20260906111111 73 107 0.0 0.0 0.00 0.00 0.00 92 1015.1
20260906110606 73 118 0.0 0.9 0.00 0.00 0.00 93 1015.1
20260906110106 73 6 0.0 0.0 0.00 0.00 0.00 93 1015.0
20260906105600 73 53 0.0 0.0 0.00 0.00 0.00 92 1015.1
20260906105056 73 57 0.0 0.9 0.00 0.00 0.00 92 1014.9
20260906104555 73 69 0.0 0.9 0.00 0.00 0.00 91 1015.0
20260906104049 73 44 0.0 0.0 0.00 0.00 0.00 91 1015.1
20260906103548 74 50 0.0 0.0 0.00 0.00 0.00 90 1014.8
20260906103043 74 89 0.0 0.0 0.00 0.00 0.00 91 1014.7
20260906102543 74 240 0.0 0.9 0.00 0.00 0.00 91 1014.8
20260906102038 74 269 0.0 0.0 0.00 0.00 0.00 92 1014.7
20260906101533 74 315 0.0 0.0 0.00 0.00 0.00 92 1014.9
20260906101027 74 309 0.0 0.9 0.00 0.00 0.00 92 1014.7
20260906100523 74 52 0.0 0.0 0.00 0.00 0.00 91 1014.7
20260906100018 75 333 0.0 0.9 0.00 0.00 0.00 90 1014.8
20260906095513 75 25 0.0 0.9 0.00 0.00 0.00 89 1014.4
20260906095008 75 18 0.0 0.0 0.00 0.00 0.00 88 1014.7
20260906094507 75 269 0.0 0.9 0.00 0.00 0.00 88 1014.3
20260906094003 75 322 0.0 0.9 0.00 0.00 0.00 88 1014.6
20260906093453 75 255 0.0 0.9 0.00 0.00 0.00 88 1014.6
20260906092948 75 309 0.0 0.0 0.00 0.00 0.00 88 1014.4
20260906092448 75 333 0.0 0.9 0.00 0.00 0.00 88 1014.6
20260906091943 74 322 0.0 0.0 0.00 0.00 0.00 89 1014.3
20260906091438 74 5 0.0 0.0 0.00 0.00 0.00 89 1014.4
20260906090935 74 310 0.0 0.0 0.00 0.00 0.00 89 1014.3
20260906090430 75 310 0.0 0.0 0.00 0.00 0.00 90 1014.2
20260906085930 74 310 0.0 0.9 0.00 0.00 0.00 91 1014.4
20260906085429 74 17 0.0 0.0 0.00 0.00 0.00 91 1014.2
20260906084928 75 322 0.0 0.0 0.00 0.00 0.00 91 1014.2
20260906084423 75 343 0.9 1.7 0.00 0.00 0.00 92 1014.2
20260906083922 75 310 0.0 0.9 0.00 0.00 0.00 92 1014.1
20260906083418 75 309 0.0 0.9 0.00 0.00 0.00 91 1014.1
20260906082917 75 283 0.0 0.9 0.00 0.00 0.00 91 1014.2
20260906082413 75 89 0.0 0.0 0.00 0.00 0.00 90 1014.1
20260906081909 76 97 1.7 1.7 0.00 0.00 0.00 90 1014.2
20260906081403 75 0 0.0 0.9 0.00 0.00 0.00 88 1014.1
20260906080900 75 297 0.0 0.0 0.00 0.00 0.00 89 1013.9
20260906080356 75 309 0.0 0.0 0.00 0.00 0.00 89 1014.0
20260906075855 75 309 0.0 0.0 0.00 0.00 0.00 90 1013.9
20260906075350 75 315 0.0 0.0 0.00 0.00 0.00 91 1014.1
20260906074846 75 322 0.0 0.0 0.00 0.00 0.00 91 1014.0
20260906074340 75 297 0.0 0.0 0.00 0.00 0.00 90 1014.1
20260906073839 76 297 0.0 0.0 0.00 0.00 0.00 90 1014.2
20260906073334 76 345 0.0 0.0 0.00 0.00 0.00 90 1014.0
20260906072831 76 322 0.0 0.0 0.00 0.00 0.00 89 1014.1
20260906072326 76 297 0.0 0.0 0.00 0.00 0.00 90 1013.9
20260906071822 76 290 0.0 0.0 0.00 0.00 0.00 90 1013.9
20260906071321 76 309 0.0 0.0 0.00 0.00 0.00 90 1014.1
20260906070818 76 309 0.0 0.0 0.00 0.00 0.00 90 1014.1
20260906070314 76 343 0.0 0.0 0.00 0.00 0.00 89 1014.0
20260906065814 76 343 0.0 0.0 0.00 0.00 0.00 88 1014.1
20260906065309 76 343 0.0 0.0 0.00 0.00 0.00 88 1014.1
20260906064804 76 343 0.0 0.0 0.00 0.00 0.00 88 1014.1
20260906064300 76 343 0.0 0.0 0.00 0.00 0.00 88 1014.2
20260906063755 76 242 0.0 0.0 0.00 0.00 0.00 88 1014.3
20260906063251 76 269 0.0 0.0 0.00 0.00 0.00 88 1014.3
20260906062745 76 269 0.0 0.0 0.00 0.00 0.00 89 1014.4
20260906062244 76 269 0.0 0.0 0.00 0.00 0.00 89 1014.3
20260906061740 76 297 0.0 0.0 0.00 0.00 0.00 89 1014.3
20260906061237 76 297 0.0 0.0 0.00 0.00 0.00 90 1014.3
20260906060731 76 32 0.0 0.0 0.00 0.00 0.00 90 1014.4
20260906060229 76 242 0.0 0.0 0.00 0.00 0.00 91 1014.4
20260906055725 77 309 0.0 0.0 0.00 0.00 0.00 91 1014.6
20260906055220 77 299 0.0 0.9 0.00 0.00 0.00 91 1014.7
20260906054716 77 284 0.0 0.9 0.00 0.00 0.00 90 1014.4
20260906054216 77 309 0.0 0.0 0.00 0.00 0.00 90 1014.4
20260906053713 77 309 0.0 0.0 0.00 0.00 0.00 89 1014.6
20260906053208 77 309 0.0 0.0 0.00 0.00 0.00 89 1014.7
20260906052702 77 25 0.0 0.0 0.00 0.00 0.00 88 1014.6
20260906052159 77 343 0.0 0.0 0.00 0.00 0.00 88 1014.8
20260906051655 77 242 0.0 0.0 0.00 0.00 0.00 88 1014.8
20260906051155 77 297 0.0 0.0 0.00 0.00 0.00 88 1014.6
20260906050650 77 315 0.0 0.0 0.00 0.00 0.00 87 1014.7
20260906050145 77 242 0.0 0.0 0.00 0.00 0.00 87 1014.6
20260906045644 78 307 0.0 0.0 0.00 0.00 0.00 89 1014.4
20260906045139 78 287 0.0 0.9 0.00 0.00 0.00 88 1014.6
20260906044635 78 314 0.0 0.0 0.00 0.00 0.00 87 1014.7
20260906044130 78 322 0.0 0.9 0.00 0.00 0.00 87 1014.6
20260906043626 78 319 0.0 0.0 0.00 0.00 0.00 87 1014.8
20260906043121 78 333 0.0 0.0 0.00 0.00 0.00 87 1014.4
20260906042621 78 242 0.0 0.0 0.00 0.00 0.00 86 1014.4
20260906042115 78 269 0.0 0.0 0.00 0.00 0.00 86 1014.4
20260906041612 78 255 0.0 0.0 0.00 0.00 0.00 86 1014.4
20260906041106 78 333 0.0 0.0 0.00 0.00 0.00 85 1014.4
20260906040601 78 297 0.0 0.0 0.00 0.00 0.00 84 1014.2
20260906040057 79 256 0.0 0.0 0.00 0.00 0.00 83 1014.2
20260906035552 79 256 0.0 0.9 0.00 0.00 0.00 84 1014.3
20260906035042 79 242 0.0 0.0 0.00 0.00 0.00 83 1014.4
20260906034542 79 255 0.0 0.0 0.00 0.00 0.00 83 1014.1
20260906034037 79 322 0.0 0.0 0.00 0.00 0.00 82 1014.2
20260906033532 79 322 0.0 0.0 0.00 0.00 0.00 82 1014.1
20260906033027 79 322 0.0 0.0 0.00 0.00 0.00 82 1014.1
20260906032524 79 322 0.0 0.0 0.00 0.00 0.00 81 1014.3
20260906032019 80 322 0.0 0.0 0.00 0.00 0.00 80 1014.1
20260906031515 80 322 0.0 0.0 0.00 0.00 0.00 80 1014.0
20260906031009 80 322 0.0 0.0 0.00 0.00 0.00 80 1014.0
20260906030503 80 309 0.0 0.0 0.00 0.00 0.00 80 1013.7
20260906030003 80 309 0.0 0.0 0.00 0.00 0.00 80 1013.7
20260906025502 80 309 0.0 0.0 0.00 0.00 0.00 79 1013.7
20260906025001 80 309 0.0 0.0 0.00 0.00 0.00 79 1013.8
20260906024456 80 309 0.0 0.0 0.00 0.00 0.00 79 1013.6
20260906023955 80 309 0.0 0.0 0.00 0.00 0.00 79 1013.6
20260906023453 80 309 0.0 0.0 0.00 0.00 0.00 78 1013.3
20260906022953 81 309 0.0 0.0 0.00 0.00 0.00 78 1013.5
20260906022449 81 309 0.0 0.0 0.00 0.00 0.00 78 1013.4
20260906021949 81 336 0.0 0.0 0.00 0.00 0.00 78 1013.3
20260906021443 81 235 0.0 0.0 0.00 0.00 0.00 77 1013.3
20260906020938 81 333 0.0 0.0 0.00 0.00 0.00 77 1013.3
20260906020433 81 333 0.0 0.0 0.00 0.00 0.00 77 1013.3
20260906015927 82 333 0.0 0.0 0.00 0.00 0.00 76 1013.1
20260906015426 82 333 0.0 0.0 0.00 0.00 0.00 77 1013.2
20260906014926 82 333 0.0 0.0 0.00 0.00 0.00 76 1013.0
20260906014426 82 333 0.0 0.0 0.00 0.00 0.00 76 1013.1
20260906013922 82 309 0.0 0.0 0.00 0.00 0.00 75 1012.9
20260906013417 83 309 0.0 0.0 0.00 0.00 0.00 74 1012.8
20260906012913 83 309 0.0 0.0 0.00 0.00 0.00 74 1012.9
20260906012408 83 309 0.0 0.0 0.00 0.00 0.00 73 1012.8
20260906011907 84 309 0.0 0.0 0.00 0.00 0.00 71 1012.5
20260906011402 85 333 0.0 0.9 0.00 0.00 0.00 71 1012.5
20260906010858 85 269 0.0 0.9 0.00 0.00 0.00 70 1012.6
20260906010354 85 283 0.0 0.0 0.00 0.00 0.00 70 1012.6
20260906005849 86 283 0.0 0.0 0.00 0.00 0.00 69 1012.5
20260906005348 86 309 0.0 0.0 0.00 0.00 0.00 68 1012.5
20260906004847 86 255 0.0 0.0 0.00 0.00 0.00 67 1012.5
20260906004347 87 297 0.0 0.0 0.00 0.00 0.00 65 1012.5
20260906003842 87 297 0.0 0.0 0.00 0.00 0.00 64 1012.6
20260906003338 88 309 0.0 0.0 0.00 0.00 0.00 62 1012.5
20260906002833 89 255 0.0 0.0 0.00 0.00 0.00 61 1012.7
20260906002332 90 284 0.0 0.0 0.00 0.00 0.00 60 1012.4
20260906001829 91 37 0.0 0.0 0.00 0.00 0.00 57 1012.6
20260906001324 92 117 0.0 0.0 0.00 0.00 0.00 53 1012.6
20260906000819 93 117 0.0 0.0 0.00 0.00 0.00 53 1012.3
20260906000314 94 117 0.0 0.0 0.00 0.00 0.00 52 1012.5
20260905235814 95 117 0.0 0.0 0.00 0.00 0.00 49 1012.3
20260905235314 96 230 0.0 0.0 0.00 0.00 0.00 49 1012.3
20260905234809 97 230 0.0 0.9 0.00 0.00 0.00 45 1012.5
20260905234304 98 231 0.0 0.9 0.00 0.00 0.00 43 1012.4
20260905233800 99 104 0.0 0.0 0.00 0.00 0.00 43 1012.3
20260905233259 101 224 0.0 0.9 0.00 0.00 0.00 40 1012.3
20260905232759 103 224 0.0 0.0 0.00 0.00 0.00 39 1012.3
20260905232255 106 269 0.0 0.9 0.00 0.00 0.00 36 1012.4
20260905231750 106 284 0.0 0.9 0.00 0.00 0.00 36 1012.3
20260905231246 105 283 0.0 0.9 0.00 0.00 0.00 35 1012.3
20260905230742 105 224 0.0 0.0 0.00 0.00 0.00 34 1012.4
20260905230239 105 269 0.0 0.9 0.00 0.00 0.00 34 1012.4
20260905225739 105 269 0.0 0.0 0.00 0.00 0.00 35 1012.3
20260905225235 104 283 0.0 0.9 0.00 0.00 0.00 34 1012.3
20260905224733 104 275 0.9 1.7 0.00 0.00 0.00 35 1012.4
20260905224229 102 247 0.9 0.9 0.00 0.00 0.00 37 1012.5
20260905223726 102 135 0.0 0.0 0.00 0.00 0.00 39 1012.2
20260905223222 102 224 0.0 0.0 0.00 0.00 0.00 38 1012.4
20260905222718 102 44 0.0 0.9 0.00 0.00 0.00 39 1012.5
20260905222216 100 235 0.0 1.7 0.00 0.00 0.00 40 1012.4
20260905221713 99 217 0.0 0.0 0.00 0.00 0.00 42 1012.6
20260905221209 98 161 0.0 2.6 0.00 0.00 0.00 42 1012.5
20260905220705 101 89 0.0 1.7 0.00 0.00 0.00 42 1012.7
20260905220201 102 10 1.7 3.5 0.00 0.00 0.00 38 1012.7
20260905215700 103 295 2.6 3.5 0.00 0.00 0.00 37 1012.7
20260905215156 103 8 0.0 2.6 0.00 0.00 0.00 37 1012.8
20260905214652 102 180 0.0 2.6 0.00 0.00 0.00 39 1012.8
20260905214147 102 88 0.0 0.9 0.00 0.00 0.00 41 1012.6
20260905213642 102 17 1.7 1.7 0.00 0.00 0.00 40 1012.8
20260905213137 102 229 0.0 1.7 0.00 0.00 0.00 38 1012.8
20260905212632 101 75 0.0 1.7 0.00 0.00 0.00 42 1012.8
20260905212132 101 54 1.7 1.7 0.00 0.00 0.00 42 1013.1
20260905211626 102 161 0.0 1.7 0.00 0.00 0.00 41 1013.1
20260905211122 102 163 0.0 1.7 0.00 0.00 0.00 39 1013.0
20260905210619 103 232 2.6 3.5 0.00 0.00 0.00 36 1013.0
20260905210113 100 330 0.9 4.3 0.00 0.00 0.00 40 1013.2
20260905205612 100 280 4.3 6.1 0.00 0.00 0.00 38 1013.3
20260905205112 103 315 0.0 3.5 0.00 0.00 0.00 39 1013.3
20260905204606 101 338 1.7 2.6 0.00 0.00 0.00 41 1013.4
20260905204102 102 338 0.0 1.7 0.00 0.00 0.00 40 1013.4
20260905203602 101 4 0.0 1.7 0.00 0.00 0.00 44 1013.3
20260905203057 100 300 1.7 2.6 0.00 0.00 0.00 43 1013.7
20260905202553 99 177 0.0 3.5 0.00 0.00 0.00 42 1013.7
20260905202048 98 227 0.0 0.0 0.00 0.00 0.00 47 1013.7
20260905201543 99 216 0.0 1.7 0.00 0.00 0.00 43 1013.7
20260905201043 100 242 0.9 0.9 0.00 0.00 0.00 41 1013.8
20260905200538 101 322 0.0 0.0 0.00 0.00 0.00 41 1013.9
20260905200038 100 186 0.0 0.9 0.00 0.00 0.00 45 1013.9
20260905195532 100 232 0.0 1.7 0.00 0.00 0.00 44 1014.0
20260905195027 101 175 0.0 0.9 0.00 0.00 0.00 44 1014.3
20260905194521 100 130 0.0 2.6 0.00 0.00 0.00 44 1014.1
20260905194021 101 180 0.9 1.7 0.00 0.00 0.00 41 1014.2
20260905193516 101 206 1.7 2.6 0.00 0.00 0.00 43 1014.3
20260905193011 100 169 0.0 2.6 0.00 0.00 0.00 42 1014.2
20260905192507 100 296 0.9 1.7 0.00 0.00 0.00 41 1014.2
20260905192003 98 142 0.0 1.7 0.00 0.00 0.00 43 1014.3
20260905191501 96 244 1.7 1.7 0.00 0.00 0.00 46 1014.3
20260905191000 95 297 0.0 0.9 0.00 0.00 0.00 48 1014.3
20260905190458 95 246 0.9 1.7 0.00 0.00 0.00 48 1014.3
20260905185957 95 246 0.0 0.0 0.00 0.00 0.00 50 1014.6
20260905185452 95 218 1.7 4.3 0.00 0.00 0.00 50 1014.7
20260905184951 96 253 3.5 5.2 0.00 0.00 0.00 48 1014.6
20260905184446 98 326 1.7 5.2 0.00 0.00 0.00 43 1014.7
20260905183944 99 250 2.6 3.5 0.00 0.00 0.00 43 1014.8
20260905183439 99 259 0.9 4.3 0.00 0.00 0.00 46 1014.7
20260905182934 99 313 3.5 5.2 0.00 0.00 0.00 45 1015.0
20260905182433 99 340 0.9 2.6 0.00 0.00 0.00 47 1014.9
20260905181929 98 96 0.0 0.9 0.00 0.00 0.00 50 1015.0
20260905181429 96 322 0.0 3.5 0.00 0.00 0.00 46 1015.2
20260905180928 96 263 1.7 2.6 0.00 0.00 0.00 48 1015.3
20260905180423 96 280 0.0 1.7 0.00 0.00 0.00 48 1015.3
20260905175918 98 259 2.6 3.5 0.00 0.00 0.00 46 1015.2
20260905175417 98 277 1.7 4.3 0.00 0.00 0.00 45 1015.4